Time,TemperatureF,DewpointF,PressureIn,WindDirection,WindDirectionDegrees,WindSpeedMPH,WindSpeedGustMPH,Humidity,HourlyPrecipIn,Conditions,Clouds,dailyrainin,SoftwareType,DateUTC
2013-04-04 00:03:00,28.0,19.2,30.44,West,281,0.0,4.0,69,0.00,,,0.01,VWS V14.01,2013-04-04 04:03:00,
2013-04-04 00:17:00,27.2,19.1,30.43,SW,232,0.0,4.0,71,0.00,,,0.00,VWS V14.01,2013-04-04 04:17:00,
2013-04-04 00:32:00,27.2,19.7,30.43,WSW,243,0.0,3.0,73,0.00,,,0.00,VWS V14.01,2013-04-04 04:32:00,
2013-04-04 01:02:00,26.4,18.9,30.42,WSW,244,0.0,3.0,73,0.00,,,0.00,VWS V14.01,2013-04-04 05:02:00,
2013-04-04 01:17:00,26.0,18.9,30.42,SSW,199,0.0,2.0,74,0.00,,,0.00,VWS V14.01,2013-04-04 05:17:00,
2013-04-04 01:32:00,25.7,18.6,30.42,SSW,199,0.0,0.0,74,0.00,,,0.00,VWS V14.01,2013-04-04 05:32:00,
2013-04-04 01:47:00,25.3,18.5,30.42,SW,214,0.0,2.0,75,0.00,,,0.00,VWS V14.01,2013-04-04 05:47:00,
2013-04-04 02:02:00,25.1,18.3,30.41,SW,215,0.0,0.0,75,0.00,,,0.00,VWS V14.01,2013-04-04 06:02:00,
2013-04-04 02:17:00,24.8,18.0,30.41,SW,215,0.0,0.0,75,0.00,,,0.00,VWS V14.01,2013-04-04 06:17:00,
2013-04-04 02:32:00,24.9,18.7,30.41,WSW,240,2.0,4.0,77,0.00,,,0.00,VWS V14.01,2013-04-04 06:32:00,
2013-04-04 02:47:00,25.0,18.2,30.41,WSW,245,0.0,2.0,75,0.00,,,0.00,VWS V14.01,2013-04-04 06:47:00,
2013-04-04 03:02:00,24.5,18.0,30.41,WSW,246,0.0,0.0,76,0.00,,,0.00,VWS V14.01,2013-04-04 07:02:00,
2013-04-04 03:17:00,25.0,18.8,30.42,WSW,246,0.0,2.0,77,0.00,,,0.00,VWS V14.01,2013-04-04 07:17:00,
2013-04-04 03:32:00,25.6,19.1,30.42,SW,236,0.0,4.0,76,0.00,,,0.00,VWS V14.01,2013-04-04 07:32:00,
2013-04-04 03:47:00,25.5,19.0,30.41,WSW,241,1.0,3.0,76,0.00,,,0.00,VWS V14.01,2013-04-04 07:47:00,
2013-04-04 04:02:00,25.8,19.3,30.42,WSW,244,1.0,2.0,76,0.00,,,0.00,VWS V14.01,2013-04-04 08:02:00,
2013-04-04 04:17:00,25.8,19.3,30.41,SW,223,0.0,3.0,76,0.00,,,0.00,VWS V14.01,2013-04-04 08:17:00,
2013-04-04 04:32:00,25.5,19.3,30.42,SW,223,0.0,1.0,77,0.00,,,0.00,VWS V14.01,2013-04-04 08:32:00,
2013-04-04 04:47:00,25.2,19.3,30.41,SW,235,0.0,1.0,78,0.00,,,0.00,VWS V14.01,2013-04-04 08:47:00,
2013-04-04 05:17:00,25.3,19.1,30.42,WSW,240,0.0,3.0,77,0.00,,,0.00,VWS V14.01,2013-04-04 09:17:00,
2013-04-04 05:32:00,25.2,19.0,30.42,WSW,244,1.0,4.0,77,0.00,,,0.00,VWS V14.01,2013-04-04 09:32:00,
2013-04-04 05:47:00,25.1,18.6,30.42,WSW,242,1.0,3.0,76,0.00,,,0.00,VWS V14.01,2013-04-04 09:47:00,
2013-04-04 06:02:00,25.2,19.0,30.42,SSW,193,0.0,4.0,77,0.00,,,0.00,VWS V14.01,2013-04-04 10:02:00,
2013-04-04 06:17:00,24.9,19.0,30.41,South,191,2.0,4.0,78,0.00,,,0.00,VWS V14.01,2013-04-04 10:17:00,
2013-04-04 06:32:00,24.7,19.1,30.41,SSW,192,0.0,4.0,79,0.00,,,0.00,VWS V14.01,2013-04-04 10:32:00,
2013-04-04 06:47:00,24.7,19.4,30.41,SSW,194,1.0,4.0,80,0.00,,,0.00,VWS V14.01,2013-04-04 10:47:00,
2013-04-04 07:02:00,25.3,19.7,30.41,West,268,2.0,4.0,79,0.00,,,0.00,VWS V14.01,2013-04-04 11:02:00,
2013-04-04 07:17:00,25.8,20.2,30.40,SSW,211,2.0,4.0,79,0.00,,,0.00,VWS V14.01,2013-04-04 11:17:00,
2013-04-04 07:47:00,25.7,20.1,30.40,SW,219,4.0,5.0,79,0.00,,,0.00,VWS V14.01,2013-04-04 11:47:00,
2013-04-04 08:17:00,27.8,21.5,30.40,SSW,207,3.0,7.0,77,0.00,,,0.00,VWS V14.01,2013-04-04 12:17:00,
2013-04-04 08:32:00,28.9,22.0,30.40,WSW,244,6.0,6.0,75,0.00,,,0.00,VWS V14.01,2013-04-04 12:32:00,
2013-04-04 08:47:00,30.3,23.3,30.40,West,264,3.0,7.0,75,0.00,,,0.00,VWS V14.01,2013-04-04 12:47:00,
2013-04-04 09:02:00,31.8,23.8,30.40,SW,230,4.0,9.0,72,0.00,,,0.00,VWS V14.01,2013-04-04 13:02:00,
2013-04-04 09:17:00,33.1,24.0,30.39,SSW,209,4.0,11.0,69,0.00,,,0.00,VWS V14.01,2013-04-04 13:17:00,
2013-04-04 09:32:00,34.0,24.2,30.38,SSW,211,3.0,8.0,67,0.00,,,0.00,VWS V14.01,2013-04-04 13:32:00,
2013-04-04 09:47:00,34.9,24.0,30.37,South,191,2.0,8.0,64,0.00,,,0.00,VWS V14.01,2013-04-04 13:47:00,
2013-04-04 10:02:00,36.1,23.6,30.36,WSW,246,3.0,7.0,60,0.00,,,0.00,VWS V14.01,2013-04-04 14:02:00,
2013-04-04 10:17:00,37.1,23.7,30.36,WSW,247,2.0,7.0,58,0.00,,,0.00,VWS V14.01,2013-04-04 14:17:00,
2013-04-04 10:32:00,37.9,22.3,30.35,WSW,246,3.0,9.0,53,0.00,,,0.00,VWS V14.01,2013-04-04 14:32:00,
2013-04-04 10:47:00,38.9,22.8,30.33,South,186,4.0,7.0,52,0.00,,,0.00,VWS V14.01,2013-04-04 14:47:00,
2013-04-04 11:02:00,39.4,22.3,30.33,SW,222,1.0,10.0,50,0.00,,,0.00,VWS V14.01,2013-04-04 15:02:00,
2013-04-04 11:17:00,39.5,21.9,30.32,SSW,204,1.0,10.0,49,0.00,,,0.00,VWS V14.01,2013-04-04 15:17:00,
2013-04-04 11:32:00,40.6,22.5,30.32,SSW,211,4.0,9.0,48,0.00,,,0.00,VWS V14.01,2013-04-04 15:32:00,
2013-04-04 11:47:00,41.4,22.7,30.31,SSW,203,5.0,10.0,47,0.00,,,0.00,VWS V14.01,2013-04-04 15:47:00,
2013-04-04 12:02:00,42.1,22.8,30.30,South,180,2.0,9.0,46,0.00,,,0.00,VWS V14.01,2013-04-04 16:02:00,
2013-04-04 12:17:00,43.2,23.8,30.28,WSW,254,4.0,10.0,46,0.00,,,0.00,VWS V14.01,2013-04-04 16:17:00,
2013-04-04 12:32:00,44.4,23.9,30.26,SSW,208,6.0,11.0,44,0.00,,,0.00,VWS V14.01,2013-04-04 16:32:00,
2013-04-04 12:47:00,45.5,23.2,30.25,SSW,196,6.0,11.0,41,0.00,,,0.00,VWS V14.01,2013-04-04 16:47:00,
2013-04-04 13:02:00,45.9,24.7,30.24,West,269,2.0,13.0,43,0.00,,,0.00,VWS V14.01,2013-04-04 17:02:00,
2013-04-04 13:17:00,46.5,25.2,30.23,SW,221,2.0,10.0,43,0.00,,,0.00,VWS V14.01,2013-04-04 17:17:00,
2013-04-04 13:32:00,47.7,25.2,30.22,SE,140,5.0,10.0,41,0.00,,,0.00,VWS V14.01,2013-04-04 17:32:00,
2013-04-04 13:47:00,48.1,25.5,30.20,South,184,3.0,8.0,41,0.00,,,0.00,VWS V14.01,2013-04-04 17:47:00,
2013-04-04 14:02:00,49.4,23.6,30.20,SSW,200,4.0,12.0,36,0.00,,,0.00,VWS V14.01,2013-04-04 18:02:00,
2013-04-04 14:17:00,50.3,23.7,30.18,WSW,246,2.0,12.0,35,0.00,,,0.00,VWS V14.01,2013-04-04 18:17:00,
2013-04-04 14:32:00,50.3,25.0,30.17,SW,221,1.0,13.0,37,0.00,,,0.00,VWS V14.01,2013-04-04 18:32:00,
2013-04-04 14:47:00,51.7,25.0,30.16,SSW,205,4.0,10.0,35,0.00,,,0.00,VWS V14.01,2013-04-04 18:47:00,
2013-04-04 15:02:00,52.3,23.3,30.15,SW,224,3.0,10.0,32,0.00,,,0.00,VWS V14.01,2013-04-04 19:02:00,
2013-04-04 15:17:00,53.2,24.9,30.14,SSW,200,3.0,7.0,33,0.00,,,0.00,VWS V14.01,2013-04-04 19:17:00,
2013-04-04 15:32:00,53.6,24.5,30.13,WSW,249,5.0,9.0,32,0.00,,,0.00,VWS V14.01,2013-04-04 19:32:00,
2013-04-04 15:47:00,54.1,24.9,30.12,SSW,209,1.0,12.0,32,0.00,,,0.00,VWS V14.01,2013-04-04 19:47:00,
2013-04-04 16:02:00,54.6,23.8,30.11,SSW,205,1.0,9.0,30,0.00,,,0.00,VWS V14.01,2013-04-04 20:02:00,
2013-04-04 16:17:00,54.7,23.1,30.10,SW,225,6.0,9.0,29,0.00,,,0.00,VWS V14.01,2013-04-04 20:17:00,
2013-04-04 16:32:00,54.2,25.0,30.10,SSW,207,5.0,11.0,32,0.00,,,0.00,VWS V14.01,2013-04-04 20:32:00,
2013-04-04 16:47:00,53.9,21.6,30.09,SW,221,5.0,10.0,28,0.00,,,0.00,VWS V14.01,2013-04-04 20:47:00,
2013-04-04 17:02:00,54.4,22.0,30.09,SSW,192,7.0,9.0,28,0.00,,,0.00,VWS V14.01,2013-04-04 21:02:00,
2013-04-04 17:17:00,55.3,20.1,30.08,WSW,244,1.0,13.0,25,0.00,,,0.00,VWS V14.01,2013-04-04 21:17:00,
2013-04-04 17:32:00,55.7,22.3,30.07,SSW,205,3.0,8.0,27,0.00,,,0.00,VWS V14.01,2013-04-04 21:32:00,
2013-04-04 17:47:00,56.0,19.7,30.07,WSW,252,3.0,7.0,24,0.00,,,0.00,VWS V14.01,2013-04-04 21:47:00,
2013-04-04 18:02:00,55.4,19.2,30.06,WSW,248,0.0,8.0,24,0.00,,,0.00,VWS V14.01,2013-04-04 22:02:00,
2013-04-04 18:17:00,55.5,17.3,30.06,WNW,286,1.0,6.0,22,0.00,,,0.00,VWS V14.01,2013-04-04 22:17:00,
2013-04-04 18:32:00,50.5,24.6,30.06,NE,36,1.0,7.0,36,0.00,,,0.00,VWS V14.01,2013-04-04 22:32:00,
2013-04-04 18:47:00,48.2,25.0,30.06,NE,35,0.0,5.0,40,0.00,,,0.00,VWS V14.01,2013-04-04 22:47:00,
2013-04-04 19:02:00,46.7,24.3,30.06,NNE,27,0.0,4.0,41,0.00,,,0.00,VWS V14.01,2013-04-04 23:02:00,
2013-04-04 19:17:00,45.2,24.6,30.06,NNE,27,0.0,3.0,44,0.00,,,0.00,VWS V14.01,2013-04-04 23:17:00,
2013-04-04 19:32:00,44.2,24.2,30.05,NNE,26,0.0,1.0,45,0.00,,,0.00,VWS V14.01,2013-04-04 23:32:00,
2013-04-04 19:47:00,43.1,24.3,30.04,NNE,27,0.0,0.0,47,0.00,,,0.00,VWS V14.01,2013-04-04 23:47:00,
2013-04-04 20:02:00,41.7,24.9,30.04,NNE,27,0.0,0.0,51,0.00,,,0.00,VWS V14.01,2013-04-05 00:02:00,
2013-04-04 20:17:00,40.6,29.0,30.04,NNE,27,0.0,0.0,63,0.00,,,0.00,VWS V14.01,2013-04-05 00:17:00,
2013-04-04 20:32:00,38.9,26.2,30.03,NNE,27,0.0,0.0,60,0.00,,,0.00,VWS V14.01,2013-04-05 00:32:00,
2013-04-04 20:47:00,38.3,26.0,30.03,NNE,26,0.0,0.0,61,0.00,,,0.00,VWS V14.01,2013-04-05 00:47:00,
2013-04-04 21:02:00,37.3,27.4,30.03,NNE,26,0.0,0.0,67,0.00,,,0.00,VWS V14.01,2013-04-05 01:02:00,
2013-04-04 21:17:00,36.2,26.3,30.03,NNE,26,0.0,0.0,67,0.00,,,0.00,VWS V14.01,2013-04-05 01:17:00,
2013-04-04 21:32:00,35.6,26.1,30.03,NNE,27,0.0,2.0,68,0.00,,,0.00,VWS V14.01,2013-04-05 01:32:00,
2013-04-04 21:47:00,38.7,21.7,30.02,West,267,0.0,3.0,50,0.00,,,0.00,VWS V14.01,2013-04-05 01:47:00,
2013-04-04 22:02:00,40.4,21.3,30.02,WSW,253,0.0,4.0,46,0.00,,,0.00,VWS V14.01,2013-04-05 02:02:00,
2013-04-04 22:17:00,40.3,20.1,30.01,West,277,1.0,6.0,44,0.00,,,0.00,VWS V14.01,2013-04-05 02:17:00,
2013-04-04 22:32:00,40.5,20.9,30.01,WSW,240,0.0,6.0,45,0.00,,,0.00,VWS V14.01,2013-04-05 02:32:00,
2013-04-04 22:47:00,40.4,19.7,30.00,WSW,238,2.0,5.0,43,0.00,,,0.00,VWS V14.01,2013-04-05 02:47:00,
2013-04-04 23:02:00,40.5,18.7,30.00,SW,226,0.0,7.0,41,0.00,,,0.00,VWS V14.01,2013-04-05 03:02:00,
2013-04-04 23:17:00,40.2,19.5,29.99,WSW,241,3.0,6.0,43,0.00,,,0.00,VWS V14.01,2013-04-05 03:17:00,
2013-04-04 23:32:00,39.9,19.8,29.99,WSW,241,1.0,5.0,44,0.00,,,0.00,VWS V14.01,2013-04-05 03:32:00,
2013-04-04 23:47:00,39.1,20.6,29.98,SSW,206,1.0,5.0,47,0.00,,,0.00,VWS V14.01,2013-04-05 03:47:00,